User: anonymous   Login
Location: Hertford
(51.8000°N, 0.0667°W)
Time: 22:58:00
(UTC+00:00)
Language:

Cosmos 1975 Rocket - Orbit

View from above orbital plane
View from above orbital plane
View from above satellite
View from above satellite

Ground track
Ground track

The orbit data is extracted from the following two-line orbital elements,

1 19574U 88093B   21210.40071413  .00000093  00000-0  84331-5 0  9996
2 19574  82.5325 179.4999 0021066 196.1311 278.1016 14.83378417751192
Epoch (UTC): 29 July 2021 09:37:01
Eccentricity: 0.0021066
inclination: 82.5325°
perigee height: 604 km
apogee height: 633 km
right ascension of ascending node: 179.4999°
argument of perigee: 196.1311°
revolutions per day: 14.83378417
mean anomaly at epoch: 278.1016°
orbit number at epoch: 75119

The dashed part of the orbit path shows where the satellite is in the earth's shadow,  

DLR